Regional Weather Roundup
Issued by NWS

Home | Current Version | Previous Version | Graphics & Text | Print | Product List | Glossary On
Versions: 1 2 3 4 5 6 7 8 9 10 11 12 13 14 15 16 17 18 19 20 21 22 23 24 25 26 27 28 29 30 31 32 33 34 35 36 37 38 39 40 41 42 43 44 45 46 47 48 49 50
000
ASUS43 KMPX 091901
RWRMN
WEATHER ROUNDUP FOR MINNESOTA
NATIONAL WEATHER SERVICE TWIN CITIES/CHANHASSEN MN
100 PM CST FRI DEC 09 2016


NOTE: "FAIR" INDICATES FEW OR NO CLOUDS BELOW 12,000 FEET WITH NO
SIGNIFICANT WEATHER AND/OR OBSTRUCTIONS TO VISIBILITY. N/A MEANS
CURRENT SKY AND/OR WEATHER CONDITIONS ARE NOT AVAILABLE.

MNZ060>063-068>070-092000-
   Twin Cities Metro

CITY           SKY/WX    TMP DP  RH WIND       PRES   REMARKS
TWIN CITIES    PTSUNNY   17   7  64 W9        30.52F WCI   6
ST PAUL        MOSUNNY   19  10  68 W10       30.54F WCI   7
CRYSTAL        CLOUDY    18   7  62 NW10      30.51F WCI   6
BLAINE         CLOUDY    19  10  68 W7        30.50F WCI  10
LAKEVILLE      SUNNY     16   9  73 W8        30.51F WCI   5
EDEN PRAIRIE   PTSUNNY   17   8  67 W8        30.51F WCI   7
SOUTH ST PAUL  MOSUNNY   19  10  66 CALM      30.52F
LAKE ELMO      FLURRIES  19  12  73 W7        30.52F WCI  10
$$
MNZ001>005-007-008-013>017-022>024-027-028-092000-
   Northwest Minnesota

CITY           SKY/WX    TMP DP  RH WIND       PRES   REMARKS
BEMIDJI        CLOUDY     7  -2  67 W8        30.46F HAZE    WCI  -6
HALLOCK        CLOUDY     1  -4  78 NW8       30.56F WCI -12
ROSEAU         CLOUDY     3  -4  72 W9        30.51F WCI -11
WARROAD        CLOUDY     3  -4  72 W10       30.50F WCI -12
THIEF RVR FALL LGT SNOW   6   1  80 NW12      30.53F WCI  -9
CROOKSTON      CLOUDY     7   0  72 NW7       30.56F WCI  -5
FOSSTON        CLOUDY     7   0  72 W10       30.50F WCI  -8
DETROIT LAKES  CLOUDY     7   1  78 NW10      30.50F WCI  -8
MOORHEAD       SUNNY      3  -2  78 NW9       30.56F WCI -11
PARK RAPIDS    LGT SNOW   9   0  67 W7        30.46F WCI  -2
$$
MNZ006-009>011-018-025>026-092000-
   North Central Minnesota

CITY           SKY/WX    TMP DP  RH WIND       PRES   REMARKS
BAUDETTE       CLOUDY     4  -6  63 W10       30.47S WCI -11
FLAG ISLAND    CLOUDY     3  -2  78 W10       30.47F WCI -12
INTL FALLS     LGT SNOW   6  -2  69 W8        30.45F VSB 3/4 WCI  -7
WASKISH        PTSUNNY    9   1  72 NW7       30.47F WCI  -3
BIG FORK       CLOUDY     9  -2  61 NW6       30.45F WCI  -1
LONGVILLE      LGT SNOW   9   1  72 W6        30.47F WCI  -1
GRAND RAPIDS   FLURRIES   9  -1  64 NW7       30.47F WCI  -2
CRANE LAKE     CLOUDY     7   0  72 W6        30.46S WCI  -3
ORR            CLOUDY     5  -6  61 CALM      30.41F
COOK           CLOUDY     5  -2  72 W8        30.44F WCI  -8
$$
MNZ012-019>021-037-092000-
   Northeast Minnesota

CITY           SKY/WX    TMP DP  RH WIND       PRES   REMARKS
DULUTH         FLURRIES  10   2  69 W15       30.42F WCI  -7
ELY            CLOUDY     7   0  72 W10       30.40S WCI  -8
HIBBING        MIX PCPN   5  -4  66 W8        30.44F WCI  -8
EVELETH        PTSUNNY    6  -3  63 W10       30.45S WCI  -8
DULUTH HARBOR  CLOUDY    16   3  57 W13       30.50F WCI   2
TWO HARBORS    MOSUNNY   12   1  62 W7G16     30.42F WCI   2
SILVER BAY     CLOUDY    14   1  57 NW6       30.41F WCI   5
GRAND MARAIS     N/A     19   4  51 VRB3      30.42F
G MARAIS ARPRT CLOUDY    10   1  67 W6        30.31F WCI   1
$$
MNZ029>031-032-039>041-046>048-054>057-064-092000-
   West Central Minnesota

CITY           SKY/WX    TMP DP  RH WIND       PRES   REMARKS
FERGUS FALLS   CLOUDY     5   0  78 NW7       30.58F HAZE    WCI  -7
WHEATON        CLOUDY     9   1  72 W10       30.58F HAZE    WCI  -6
MORRIS         SUNNY      7   0  72 W5        30.53F WCI  -2
ALEXANDRIA     CLOUDY     7   1  76 W7        30.49F WCI  -5
ELBOW LAKE     CLOUDY     4   0  80 NW3       30.53F HAZE
WADENA         CLOUDY     7   0  72 W7        30.48F WCI  -5
GLENWOOD       CLOUDY     7   1  78 W8        30.50F HAZE    WCI  -6
APPLETON       MOSUNNY    9   0  66 W9        30.55F WCI  -5
BENSON         MOSUNNY    9   0  66 NW8       30.54F WCI  -4
ORTONVILLE     PTSUNNY    9   0  66 CALM      30.54F
MADISON        PTSUNNY   12   1  62 NW8       30.56S WCI   1
WILLMAR        CLOUDY    10   5  79 CALM      30.54F HAZE
$$
MNZ033>034-036-042>043-049>051-058-059-092000-
   Central Minnesota

CITY           SKY/WX    TMP DP  RH WIND       PRES   REMARKS
ST CLOUD       LGT SNOW  14   7  73 W8        30.50F WCI   3
PAYNESVILLE    MOSUNNY   10   3  74 NW8       30.51F WCI  -2
AITKIN         MIX PCPN  14   1  57 W3        30.46F
PINE RIVER     CLOUDY     9   1  72 CALM      30.49F
BRAINERD       FLURRIES  10   2  69 W10       30.48F WCI  -4
STAPLES        CLOUDY     9   1  72 W8        30.48F HAZE    WCI  -4
LONG PRAIRIE   CLOUDY    10   3  72 W7        30.49F WCI   0
LITTLE FALLS   CLOUDY    12   3  67 W3        30.50F
LITCHFIELD     PTSUNNY   12   7  79 W7        30.52F WCI   2
BUFFALO        FLURRIES  15   8  71 W8        30.53F WCI   5
MAPLE LAKE     FLURRIES  16   9  74 W6        30.52F WCI   8
HUTCHINSON     PTSUNNY   15   8  74 W8        30.53F WCI   3
$$
MNZ037-044-045-052-053-092000-
   East Central Minnesota

CITY           SKY/WX    TMP DP  RH WIND       PRES   REMARKS
PRINCETON      CLOUDY    16   9  73 W7        30.50F WCI   6
MORA           CLOUDY    18   5  57 W9        30.50F WCI   6
CAMBRIDGE      FLURRIES  18   7  62 W10       30.49F WCI   6
RUSH CITY      CLOUDY    18  10  73 W7        30.49F WCI   8
MOOSE LAKE     CLOUDY    14   3  62 NW7       30.45F WCI   4
HINCKLEY       CLOUDY    18   9  68 NW5       30.48F WCI  11
CLOQUET        CLOUDY    10   1  67 W6        30.44F HAZE    WCI   1
MCGREGOR       CLOUDY    12   5  73 NW6       30.47F WCI   3
$$
MNZ071>073-080-081-089-090-097-098-092000-
   Southwest Minnesota

CITY           SKY/WX    TMP DP  RH WIND       PRES   REMARKS
MONTEVIDEO     PTSUNNY   14   7  73 NW5       30.56F WCI   6
GRANITE FALLS  PTSUNNY   11   5  77 NW7       30.56F WCI   1
CANBY          PTSUNNY   11   1  62 CALM      30.56S
MARSHALL       MOSUNNY    9   1  70 NW9       30.54F WCI  -4
REDWOOD FALLS  FLURRIES  10   3  73 W6        30.54F WCI   0
OLIVIA         PTSUNNY   10   5  79 W7        30.53F HAZE    WCI   0
PIPESTONE      CLOUDY    10   3  72 N5        30.48F WCI   2
WINDOM         SUNNY     14   7  73 CALM      30.50F
WORTHINGTON    CLOUDY    13   7  77 W7        30.50F WCI   3
JACKSON        MOSUNNY   14   9  79 W6        30.49F WCI   5
TRACY          PTSUNNY   11   5  76 N6        30.52F WCI   2
SLAYTON        PTSUNNY   10   4  77 N3        30.50F
$$
MNZ065>067-074>077-082>085-091>093-092000-
   South Central Minnesota

CITY           SKY/WX    TMP DP  RH WIND       PRES   REMARKS
MANKATO        FLURRIES  15   8  73 W7        30.53F WCI   5
NEW ULM        LGT SNOW  10   5  79 W9        30.54F WCI  -2
ST JAMES       MOSUNNY   14   7  73 W5        30.54F WCI   6
FAIRMONT       PTSUNNY   16   8  71 NW5       30.53F WCI   9
GLENCOE        FLURRIES  15  10  82 W7        30.52F WCI   5
FARIBAULT      SUNNY     16   9  73 W8        30.52F WCI   5
OWATONNA       SUNNY     16   9  73 W9        30.51F WCI   4
WASECA         SUNNY     14  10  85 W6        30.53F WCI   5
ALBERT LEA     MOSUNNY   18  12  79 NW6       30.51F WCI   9
$$
MNZ078>079-086>088-094>096-092000-
   Southeast Minnesota

CITY           SKY/WX    TMP DP  RH WIND       PRES   REMARKS
ROCHESTER      SUNNY     14  10  84 W9        30.49F WCI   2
RED WING       MOSUNNY   19  10  68 W9        30.51F WCI   9
STANTON        SUNNY     17  10  74 SW7       30.51F WCI   7
DODGE CENTER   MOSUNNY   16  10  79 W10       30.49F WCI   3
WINONA         MOSUNNY   21  12  68 W3        30.53F
AUSTIN         LGT SNOW  18  10  73 W9        30.50F WCI   6
PRESTON        SUNNY     15   8  73 W6        30.50F WCI   7
$$
ABBREVIATIONS USED IN REMARKS
   TC - TEMPERATURES IN CELSIUS
  WCI - WIND CHILL INDEX
   HX - HEAT INDEX
  VSB - VISIBILITY
$$



USA.gov is the U.S. government's official web portal to all federal, state and local government web resources and services.